METEOR 2-17 DEB, 29067

Orbit data source: Space-Track

METEOR 2-17 DEB, 29067 is space debris in LEO originally from a launch on Sat, 30 Jan 1988 UTC launched from the Plesetsk Missile And Space Complex (PKMTR). Debris objects in space refer to the collection of defunct objects orbiting the Earth. Examples of debris include non-operational satellites, rocket bodies, and fragments generated from explosions, collisions, or faulty payload assembly.

Loading next visibility...
Identifier
29067, 1988-005M
Orbit
LEO
Country
Flag of CISCIS
Related business
Manufacturer
Unknown
Mission
Spacecraft
Bus & Motor
Unknown
Mass
Unknown
Launch date (UTC)
1988-01-30 (38 years ago)
Launch vehicle
Unknown
Launch site
Plesetsk Missile And Space Complex (PKMTR)
Object type
Payload
Rocket body
Debris
Shape & HBR
Unknown shape, 0.1 m
Radar Cross Section
Small (<0.1 m²)

Expand to show TLE details & history
Last TLE update: 1 day ago

TLE from 1 day ago
0 METEOR 2-17 DEB
1 29067U 88005M   25351.35168199  .00003172  00000-0  19017-2 0  9996
2 29067  82.5216  20.8509 0028543 281.8895  77.9078 14.06522154625064
Epoch: 2025-12-17T08:26Z
TLE epoch observation values (Epoch: 2025-12-17T08:26:25.323Z)
Latitude
0.00002°
Longitude
168.02261°
Altitude
869.951 km
Speed
7.42 km/s
True Right ascension
01h 23m 24s
True Declination
0° 00' 00"
Sunlit
Object was in daylight at epoch
Visualization orbit readout
Latitude
Unknown
Longitude
Unknown
Altitude
Unknown
Speed
Unknown
Apparent Right ascension
Unknown
Apparent Declination
Unknown
Sunlit
N/A
Visualization observer readout
Local Sidereal Time
08:15:54
Azimuth
Unknown
Elevation
Unknown
Doppler factor
Unknown
Orbital elements
Apogee altitude
889.103 km
Perigee altitude
847.736 km
Semi-major axis
7,246.556 km
Eccentricity
0.00285
Inclination
82.5216°
RAAN
20.8509°
Arg. of periapsis
281.8895°
True anomaly
78.22786°
Mean anomaly
77.9078°
Eccentric anomaly
78.06781°
Mean motion
3.5184 °/min
Orbital period
102.32 mins
BSTAR
0.0019017
Loading maneuver chart data...
Computing Atmospheric mass density...
Loading historical data...
Loading historical data...
Loading historical data...
Loading historical data...
Loading historical data...
Loading historical data...
Loading historical data...

Documentation

Showing up to 5 results
|